Time,TemperatureF,DewpointF,PressureIn,WindDirection,WindDirectionDegrees,WindSpeedMPH,WindSpeedGustMPH,Humidity,HourlyPrecipIn,Conditions,Clouds,dailyrainin,SoftwareType,DateUTC
2016-09-26 00:02:00,49.5,30.0,30.64,WSW,241,3.0,-999.0,47,-99.99,,,-99.99,meteohub,2016-09-26 06:02:00,
2016-09-26 00:07:00,49.5,30.6,30.64,WSW,241,3.0,-999.0,48,-99.99,,,-99.99,meteohub,2016-09-26 06:07:00,
2016-09-26 00:11:00,48.9,30.6,30.64,NNW,333,2.0,-999.0,49,-99.99,,,-99.99,meteohub,2016-09-26 06:11:00,
2016-09-26 00:12:00,49.5,30.0,30.64,WSW,240,2.0,-999.0,47,-99.99,,,-99.99,meteohub,2016-09-26 06:12:00,
2016-09-26 00:17:00,49.5,29.5,30.64,West,275,3.0,-999.0,46,-99.99,,,-99.99,meteohub,2016-09-26 06:17:00,
2016-09-26 00:22:00,49.5,30.0,30.64,West,275,3.0,-999.0,47,-99.99,,,-99.99,meteohub,2016-09-26 06:22:00,
2016-09-26 00:27:00,49.5,30.0,30.64,SW,219,3.0,-999.0,47,-99.99,,,-99.99,meteohub,2016-09-26 06:27:00,
2016-09-26 00:28:00,48.4,30.6,30.64,West,277,3.0,-999.0,50,-99.99,,,0.00,meteohub,2016-09-26 06:28:00,
2016-09-26 00:32:00,49.5,30.0,30.64,SSW,210,3.0,-999.0,47,-99.99,,,-99.99,meteohub,2016-09-26 06:32:00,
2016-09-26 00:37:00,49.6,30.2,30.64,NNW,337,2.0,-999.0,47,-99.99,,,-99.99,meteohub,2016-09-26 06:37:00,
2016-09-26 00:42:00,49.5,30.6,30.64,NNW,334,3.0,-999.0,48,-99.99,,,-99.99,meteohub,2016-09-26 06:42:00,
2016-09-26 00:47:00,49.5,30.6,30.64,NNW,333,1.0,-999.0,48,-99.99,,,-99.99,meteohub,2016-09-26 06:47:00,
2016-09-26 00:52:00,49.1,30.7,30.64,NNW,333,1.0,-999.0,49,-99.99,,,-99.99,meteohub,2016-09-26 06:52:00,
2016-09-26 00:57:00,48.7,30.4,30.64,NNW,333,3.0,-999.0,49,-99.99,,,-99.99,meteohub,2016-09-26 06:57:00,
2016-09-26 01:02:00,48.6,30.2,30.64,NW,326,2.0,-999.0,49,-99.99,,,0.00,meteohub,2016-09-26 07:02:00,
2016-09-26 01:08:00,48.6,30.7,30.64,NW,325,2.0,-999.0,50,-99.99,,,0.00,meteohub,2016-09-26 07:08:00,
2016-09-26 01:13:00,48.4,30.6,30.64,West,277,2.0,-999.0,50,-99.99,,,0.00,meteohub,2016-09-26 07:13:00,
2016-09-26 01:18:00,48.2,30.9,30.64,West,277,3.0,-999.0,51,-99.99,,,0.00,meteohub,2016-09-26 07:18:00,
2016-09-26 01:28:00,48.0,29.8,30.63,SSW,195,4.0,-999.0,49,-99.99,,,0.00,meteohub,2016-09-26 07:28:00,
2016-09-26 01:33:00,48.0,29.8,30.64,SSW,208,2.0,-999.0,49,-99.99,,,0.00,meteohub,2016-09-26 07:33:00,
2016-09-26 01:39:00,48.0,29.8,30.63,SSW,209,2.0,-999.0,49,-99.99,,,0.00,meteohub,2016-09-26 07:39:00,
2016-09-26 01:44:00,48.0,29.3,30.64,SSW,209,2.0,-999.0,48,-99.99,,,0.00,meteohub,2016-09-26 07:44:00,
2016-09-26 01:46:00,45.7,30.4,30.62,SSW,211,3.0,-999.0,55,-99.99,,,0.00,meteohub,2016-09-26 07:46:00,
2016-09-26 01:49:00,48.0,29.8,30.64,SSW,209,1.0,-999.0,49,-99.99,,,0.00,meteohub,2016-09-26 07:49:00,
2016-09-26 01:50:00,45.5,30.2,30.62,SW,226,2.0,-999.0,55,-99.99,,,0.00,meteohub,2016-09-26 07:50:00,
2016-09-26 01:55:00,45.5,30.2,30.62,SW,225,3.0,-999.0,55,-99.99,,,0.00,meteohub,2016-09-26 07:55:00,
2016-09-26 01:56:00,45.5,29.8,30.62,SW,225,1.0,-999.0,54,-99.99,,,0.00,meteohub,2016-09-26 07:56:00,
2016-09-26 01:57:00,45.5,30.2,30.62,SW,225,1.0,-999.0,55,-99.99,,,0.00,meteohub,2016-09-26 07:57:00,
2016-09-26 01:59:00,47.7,30.4,30.63,SSW,209,0.0,-999.0,51,-99.99,,,0.00,meteohub,2016-09-26 07:59:00,
2016-09-26 02:04:00,47.7,31.3,30.64,SSW,209,0.0,-999.0,53,-99.99,,,0.00,meteohub,2016-09-26 08:04:00,
2016-09-26 02:15:00,46.8,31.5,30.63,SSW,209,2.0,-999.0,55,-99.99,,,0.00,meteohub,2016-09-26 08:15:00,
2016-09-26 02:18:00,45.5,30.2,30.61,SW,221,4.0,-999.0,55,-99.99,,,0.00,meteohub,2016-09-26 08:18:00,
2016-09-26 02:20:00,46.4,31.1,30.62,SSW,209,2.0,-999.0,55,-99.99,,,0.00,meteohub,2016-09-26 08:20:00,
2016-09-26 02:21:00,45.7,30.4,30.61,SW,224,5.0,-999.0,55,-99.99,,,0.00,meteohub,2016-09-26 08:21:00,
2016-09-26 02:25:00,46.0,30.7,30.62,SSW,209,3.0,-999.0,55,-99.99,,,0.00,meteohub,2016-09-26 08:25:00,
2016-09-26 02:27:00,45.7,30.0,30.61,SW,215,3.0,-999.0,54,-99.99,,,0.00,meteohub,2016-09-26 08:27:00,
2016-09-26 02:30:00,45.9,30.6,30.63,SSW,211,3.0,-999.0,55,-99.99,,,0.00,meteohub,2016-09-26 08:30:00,
2016-09-26 02:31:00,45.9,29.7,30.62,SW,215,2.0,-999.0,53,-99.99,,,0.00,meteohub,2016-09-26 08:31:00,
2016-09-26 02:36:00,45.5,30.2,30.62,SW,226,3.0,-999.0,55,-99.99,,,0.00,meteohub,2016-09-26 08:36:00,
2016-09-26 02:41:00,45.5,29.8,30.62,SW,225,3.0,-999.0,54,-99.99,,,0.00,meteohub,2016-09-26 08:41:00,
2016-09-26 02:43:00,46.0,30.7,30.61,SW,234,2.0,-999.0,55,-99.99,,,0.00,meteohub,2016-09-26 08:43:00,
2016-09-26 02:44:00,46.0,30.7,30.61,SW,234,2.0,-999.0,55,-99.99,,,0.00,meteohub,2016-09-26 08:44:00,
2016-09-26 02:46:00,45.5,30.2,30.62,SW,225,3.0,-999.0,55,-99.99,,,0.00,meteohub,2016-09-26 08:46:00,
2016-09-26 02:51:00,45.5,30.2,30.62,SW,226,2.0,-999.0,55,-99.99,,,0.00,meteohub,2016-09-26 08:51:00,
2016-09-26 02:56:00,45.5,30.2,30.62,SW,227,2.0,-999.0,55,-99.99,,,0.00,meteohub,2016-09-26 08:56:00,
2016-09-26 03:01:00,45.5,30.2,30.62,SW,217,1.0,-999.0,55,-99.99,,,0.00,meteohub,2016-09-26 09:01:00,
2016-09-26 03:05:00,46.0,30.4,30.61,SW,234,2.0,-999.0,54,-99.99,,,0.00,meteohub,2016-09-26 09:05:00,
2016-09-26 03:07:00,45.7,30.4,30.62,SW,224,3.0,-999.0,55,-99.99,,,0.00,meteohub,2016-09-26 09:07:00,
2016-09-26 03:12:00,45.7,30.0,30.61,SW,215,4.0,-999.0,54,-99.99,,,0.00,meteohub,2016-09-26 09:12:00,
2016-09-26 03:17:00,45.9,30.2,30.61,SW,215,2.0,-999.0,54,-99.99,,,0.00,meteohub,2016-09-26 09:17:00,
2016-09-26 03:18:00,46.0,30.7,30.61,SW,232,1.0,-999.0,55,-99.99,,,0.00,meteohub,2016-09-26 09:18:00,
2016-09-26 03:22:00,46.0,30.4,30.61,SW,214,1.0,-999.0,54,-99.99,,,0.00,meteohub,2016-09-26 09:22:00,
2016-09-26 03:27:00,46.0,30.7,30.62,SW,234,2.0,-999.0,55,-99.99,,,0.00,meteohub,2016-09-26 09:27:00,
2016-09-26 03:32:00,46.0,30.4,30.62,SW,234,1.0,-999.0,54,-99.99,,,0.00,meteohub,2016-09-26 09:32:00,
2016-09-26 03:37:00,46.0,30.7,30.62,SW,234,2.0,-999.0,55,-99.99,,,0.00,meteohub,2016-09-26 09:37:00,
2016-09-26 03:42:00,46.0,30.7,30.62,SW,234,2.0,-999.0,55,-99.99,,,0.00,meteohub,2016-09-26 09:42:00,
2016-09-26 03:47:00,46.0,30.7,30.61,SW,234,2.0,-999.0,55,-99.99,,,0.00,meteohub,2016-09-26 09:47:00,
2016-09-26 03:52:00,46.0,30.4,30.61,SW,234,1.0,-999.0,54,-99.99,,,0.00,meteohub,2016-09-26 09:52:00,
2016-09-26 03:57:00,46.0,30.7,30.61,SW,232,2.0,-999.0,55,-99.99,,,0.00,meteohub,2016-09-26 09:57:00,
2016-09-26 04:02:00,46.0,30.7,30.61,SW,232,1.0,-999.0,55,-99.99,,,0.00,meteohub,2016-09-26 10:02:00,
2016-09-26 04:07:00,45.9,30.6,30.61,SW,232,2.0,-999.0,55,-99.99,,,0.00,meteohub,2016-09-26 10:07:00,
2016-09-26 04:12:00,45.7,30.9,30.61,SW,232,3.0,-999.0,56,-99.99,,,0.00,meteohub,2016-09-26 10:12:00,